Weather History for CYQG - May, 2013

Change the Weather History Date:

Tuesday, May 21, 2013

  Actual Average Record
Temperature  
Mean Temperature 78 °F -  
Max Temperature 86 °F 75 °F 86 °F (2013)
Min Temperature 69 °F 54 °F 37 °F (2002)
Cooling Degree Days 12    
Growing Degree Days 28 (Base 50)    
Moisture  
Dew Point 62 °F    
Average Humidity 59    
Maximum Humidity 83    
Minimum Humidity 35    
Precipitation  
Precipitation 0.04 in 0.12 in - ()
Sea Level Pressure  
Sea Level Pressure 29.78 in    
Wind  
Wind Speed 9 mph ()    
Max Wind Speed 20 mph    
Max Gust Speed 28 mph    
Visibility 12.7 miles    
Events Rain    
Averages and records for this station are not official NWS values.
T = Trace of Precipitation, MM = Missing Value Source: Averaged Metar Reports

Daily Weather History Graph

Daily Weather History Graph

Search for Another Location

Airport or City:

Trip Planner

Search our weather history database for the weather conditions in past years. The results will help you decide how hot, cold, wet, or windy it might be!

Date:

Astronomy

May. 21, 2013 Rise Set
Actual Time 6:04 AM EDT 8:52 PM EDT
Civil Twilight 5:32 AM EDT 9:25 PM EDT
Nautical Twilight 4:50 AM EDT 10:06 PM EDT
Astronomical Twilight 4:03 AM EDT 10:54 PM EDT
Moon 5:01 PM EDT (5/21) 3:36 AM EDT (5/21)
Length of Visible Light 15h 53m
Length of Day
14h 47m
Waxing Gibbous, 84% of the Moon is Illuminated
May 21
Waxing Gibbous
May 25
Full
May 31
Last Quarter
Jun 8
New
Jun 16
First Quarter

Hourly Weather History & Observations

Time (EDT) Temp. Heat Index Dew Point Humidity Pressure Visibility Wind Dir Wind Speed Gust Speed Precip Events Conditions
12:00 AM 75.2 °F - 64.4 °F 69% 29.83 in 15.0 mi SSW 9.2 mph - N/A   Partly Cloudy
1:00 AM 75.2 °F - 64.4 °F 69% 29.83 in 12.0 mi SSW 10.4 mph - N/A   Partly Cloudy
2:00 AM 73 °F - 64 °F 65% 29.83 in 10 mi SSW 8.1 mph - -   Clear
2:00 AM 73.4 °F - 64.4 °F 73% 29.83 in 10.0 mi SSW 8.1 mph - N/A   Partly Cloudy
3:00 AM 73.4 °F - 64.4 °F 73% 29.81 in 8.0 mi SSW 8.1 mph - N/A   Scattered Clouds
4:00 AM 71.6 °F - 64.4 °F 78% 29.81 in 8.0 mi SSW 9.2 mph - N/A   Partly Cloudy
5:00 AM 71.6 °F - 62.6 °F 73% 29.81 in 8.0 mi SSW 8.1 mph - N/A   Mostly Cloudy
6:00 AM 69.8 °F - 64.4 °F 83% 29.82 in 7.0 mi SSW 8.1 mph - N/A   Mostly Cloudy
7:00 AM 71.6 °F - 64.4 °F 78% 29.81 in 7.0 mi South 8.1 mph - N/A   Mostly Cloudy
8:00 AM 72 °F - 65 °F 73% 29.81 in 10 mi SSW 10.4 mph - -   Mostly Cloudy
8:00 AM 71.6 °F - 64.4 °F 78% 29.81 in 10.0 mi SSW 10.4 mph - N/A   Mostly Cloudy
9:00 AM 73.4 °F - 66.2 °F 78% 29.78 in 10.0 mi South 11.5 mph - N/A   Mostly Cloudy
10:00 AM 77.0 °F - 66.2 °F 69% 29.81 in 12.0 mi SW 19.6 mph 27.6 mph N/A   Mostly Cloudy
11:00 AM 80.6 °F 82.7 °F 66.2 °F 61% 29.80 in 15.0 mi SSW 15.0 mph - N/A   Mostly Cloudy
12:00 PM 84.2 °F 84.4 °F 60.8 °F 45% 29.79 in 15.0 mi WSW 13.8 mph - N/A   Mostly Cloudy
1:00 PM 84.2 °F 83.8 °F 59.0 °F 42% 29.77 in 15.0 mi WSW 18.4 mph - N/A   Mostly Cloudy
2:00 PM 82 °F - 60 °F 36% 29.76 in 15 mi SW 18.4 mph - -   Mostly Cloudy
2:00 PM 82.4 °F 82.5 °F 59.0 °F 45% 29.76 in 15.0 mi SW 17.3 mph 24.2 mph N/A   Mostly Cloudy
2:27 PM - - - N/A% - 15.0 mi WSW 13.8 mph 21.9 mph N/A Rain Light Rain Showers
2:51 PM - - - N/A% - 15.0 mi SW 9.2 mph - N/A   Mostly Cloudy
3:00 PM 80.6 °F 81.8 °F 62.6 °F 54% 29.76 in 15.0 mi SW 11.5 mph - N/A   Mostly Cloudy
4:00 PM 84.2 °F 83.8 °F 59.0 °F 42% 29.74 in 15.0 mi SW 18.4 mph - N/A   Mostly Cloudy
5:00 PM 86.0 °F 85.4 °F 59.0 °F 40% 29.73 in 15.0 mi SW 16.1 mph - N/A   Mostly Cloudy
6:00 PM 86.0 °F 85.4 °F 59.0 °F 40% 29.73 in 15.0 mi West 17.3 mph 24.2 mph N/A   Mostly Cloudy
7:00 PM 86.0 °F 85.4 °F 59.0 °F 40% 29.72 in 15.0 mi WSW 11.5 mph 20.7 mph N/A   Mostly Cloudy
8:00 PM 83 °F - 60 °F 35% 29.73 in 15 mi WSW 8.1 mph - -   Partly Cloudy
8:00 PM 84.2 °F 83.8 °F 59.0 °F 42% 29.73 in 15.0 mi WSW 9.2 mph - N/A   Mostly Cloudy
9:00 PM 82.4 °F 82.5 °F 59.0 °F 45% 29.73 in 15.0 mi SW 2.3 mph - N/A   Mostly Cloudy
10:00 PM 77.0 °F - 60.8 °F 57% 29.74 in 15.0 mi SSE 8.1 mph - N/A   Mostly Cloudy
10:35 PM - - - N/A% - 15.0 mi South 4.6 mph - N/A Rain Light Rain Showers
11:00 PM 71.6 °F - 64.4 °F 78% 29.75 in 10.0 mi SSE 3.5 mph - N/A Rain Light Rain Showers
11:22 PM - - - N/A% - 15.0 mi Calm Calm - N/A   Overcast